Location: Dana
(41.8364°N, 106.7042°W)
Time: 02:30:06
(UTC+00:00)

Transit 4A - Pass Details

Date: 14 May 2026
Orbit: 860 x 980 km, 66.8° (Epoch: 6 June)

Event Time Altitude Azimuth Distance (km) Brightness Sun altitude
Rises 22:41:14 0° 335° (NNW) 3,683 11.2 38.6°
Reaches altitude 10° 22:44:14 10° 348° (NNW) 2,738 10.5 38.1°
Maximum altitude 22:49:38 28° 45° (NE) 1,766 9.3 37.1°
Drops below altitude 10° 22:55:00 10° 102° (ESE) 2,717 10.0 36.1°
Sets 22:57:57 0° 114° (ESE) 3,650 10.6 35.6°
